Terminal Aerodrome Forecast
Issued by NWS Wakefield, VA

Home | Current Version | Previous Version | Text Only | Print | Product List | Glossary On
Versions: 1 2 3 4 5 6 7 8 9 10 11 12 13 14 15 16 17 18 19 20 21
000
FTUS41 KAKQ 050539
TAFSBY
TAF
KSBY 050539Z 0506/0606 34003KT 4SM BR SCT002 OVC010
      TEMPO 0506/0510 1SM BR OVC002
     FM051400 06004KT 5SM BR BKN020
     FM051600 10006KT P6SM BKN050
     FM060000 09003KT 5SM BR OVC100=

USA.gov is the U.S. government's official web portal to all federal, state and local government web resources and services.